Location: Miles
(41.4492°N, 81.6087°W)
Time: 22:15:53
(UTC+00:00)

Vanguard 2 Rocket - Pass Details

Date: 23 September 2024
Orbit: 553 x 3298 km, 32.9° (Epoch: 12 October)

Event Time Altitude Azimuth Distance (km) Brightness Sun altitude
Rises 09:22:49 0° 272° (W) 4,761 - -21.5°
Reaches altitude 10° 09:25:42 10° 265° (W) 4,095 - -21.0°
Exits shadow 09:30:04 27° 248° (WSW) 3,365 9.1 -20.2°
Maximum altitude 09:36:28 42° 200° (SSW) 3,219 9.3 -19.1°
Drops below altitude 10° 09:52:50 10° 138° (SE) 6,088 11.4 -16.2°
Sets 09:58:20 0° 132° (SE) 7,242 12.0 -15.2°
